Year,Month,Day,Hour,Minute,Value (Times are PST for temperature in C)
2014,05,01,00,00,15.20
2014,05,01,00,01,15.20
2014,05,01,00,02,15.20
2014,05,01,00,03,15.10
2014,05,01,00,04,15.10
2014,05,01,00,05,15.10
2014,05,01,00,06,15.10
2014,05,01,00,07,15.00
2014,05,01,00,08,15.00
2014,05,01,00,09,15.00
2014,05,01,00,10,15.00
2014,05,01,00,11,15.00
2014,05,01,00,12,15.00
2014,05,01,00,13,15.10
2014,05,01,00,14,15.10
2014,05,01,00,15,15.20
2014,05,01,00,16,15.30
2014,05,01,00,17,15.40
2014,05,01,00,18,15.50
2014,05,01,00,19,15.60
2014,05,01,00,20,15.60
2014,05,01,00,21,15.50
2014,05,01,00,22,15.50
2014,05,01,00,23,15.50
2014,05,01,00,24,15.40
2014,05,01,00,25,15.30
2014,05,01,00,26,15.30
2014,05,01,00,27,15.30
2014,05,01,00,28,15.30
2014,05,01,00,29,15.20
2014,05,01,00,30,15.20
2014,05,01,00,31,15.20
2014,05,01,00,32,15.20
2014,05,01,00,33,15.30
2014,05,01,00,34,15.30
2014,05,01,00,35,15.40
2014,05,01,00,36,15.50
2014,05,01,00,37,15.70
2014,05,01,00,38,15.90
2014,05,01,00,39,16.10
2014,05,01,00,40,16.30
2014,05,01,00,41,16.40
2014,05,01,00,42,16.50
2014,05,01,00,43,16.60
2014,05,01,00,44,16.70
2014,05,01,00,45,16.80
2014,05,01,00,46,16.90
2014,05,01,00,47,17.00
2014,05,01,00,48,17.10
2014,05,01,00,49,17.20
2014,05,01,00,50,17.30
2014,05,01,00,51,17.40
2014,05,01,00,52,17.50
2014,05,01,00,53,17.60
2014,05,01,00,54,17.70
2014,05,01,00,55,17.80
2014,05,01,00,56,17.80
2014,05,01,00,57,17.90
2014,05,01,00,58,17.90
2014,05,01,00,59,17.90
2014,05,01,01,00,18.00
2014,05,01,01,01,18.00
2014,05,01,01,02,18.00
2014,05,01,01,03,18.10
2014,05,01,01,04,18.10
2014,05,01,01,05,18.10
2014,05,01,01,06,18.10
2014,05,01,01,07,18.10
2014,05,01,01,08,18.00
2014,05,01,01,09,18.00
2014,05,01,01,10,18.00
2014,05,01,01,11,18.00
2014,05,01,01,12,18.00
2014,05,01,01,13,18.00
2014,05,01,01,14,17.90
2014,05,01,01,15,17.80
2014,05,01,01,16,17.80
2014,05,01,01,17,17.70
2014,05,01,01,18,17.70
2014,05,01,01,19,17.60
2014,05,01,01,20,17.50
2014,05,01,01,21,17.40
2014,05,01,01,22,17.20
2014,05,01,01,23,17.10
2014,05,01,01,24,17.00
2014,05,01,01,25,16.80
2014,05,01,01,26,16.70
2014,05,01,01,27,16.60
2014,05,01,01,28,16.50
2014,05,01,01,29,16.40
2014,05,01,01,30,16.40
2014,05,01,01,31,16.30
2014,05,01,01,32,16.30
2014,05,01,01,33,16.20
2014,05,01,01,34,16.20
2014,05,01,01,35,16.20
2014,05,01,01,36,16.20
2014,05,01,01,37,16.20
2014,05,01,01,38,16.20
2014,05,01,01,39,16.20
2014,05,01,01,40,16.30
2014,05,01,01,41,16.30
2014,05,01,01,42,16.30
2014,05,01,01,43,16.40
2014,05,01,01,44,16.40
2014,05,01,01,45,16.50
2014,05,01,01,46,16.50
2014,05,01,01,47,16.60
2014,05,01,01,48,16.70
2014,05,01,01,49,16.80
2014,05,01,01,50,16.80
2014,05,01,01,51,16.90
2014,05,01,01,52,16.90
2014,05,01,01,53,17.00
2014,05,01,01,54,17.20
2014,05,01,01,55,17.30
2014,05,01,01,56,17.30
2014,05,01,01,57,17.30
2014,05,01,01,58,17.40
2014,05,01,01,59,17.40
2014,05,01,02,00,17.40
2014,05,01,02,01,17.40
2014,05,01,02,02,17.50
2014,05,01,02,03,17.50
2014,05,01,02,04,17.50
2014,05,01,02,05,17.50
2014,05,01,02,06,17.40
2014,05,01,02,07,17.40
2014,05,01,02,08,17.30
2014,05,01,02,09,17.20
2014,05,01,02,10,17.20
2014,05,01,02,11,17.20
2014,05,01,02,12,17.20
2014,05,01,02,13,17.20
2014,05,01,02,14,17.10
2014,05,01,02,15,17.10
2014,05,01,02,16,17.00
2014,05,01,02,17,16.90
2014,05,01,02,18,16.80
2014,05,01,02,19,16.60
2014,05,01,02,20,16.40
2014,05,01,02,21,16.30
2014,05,01,02,22,16.20
2014,05,01,02,23,16.20
2014,05,01,02,24,16.10
2014,05,01,02,25,16.10
2014,05,01,02,26,16.20
2014,05,01,02,27,16.20
2014,05,01,02,28,16.20
2014,05,01,02,29,16.30
2014,05,01,02,30,16.30
2014,05,01,02,31,16.40
2014,05,01,02,32,16.40
2014,05,01,02,33,16.40
2014,05,01,02,34,16.40
2014,05,01,02,35,16.50
2014,05,01,02,36,16.50
2014,05,01,02,37,16.60
2014,05,01,02,38,16.60
2014,05,01,02,39,16.60
2014,05,01,02,40,16.70
2014,05,01,02,41,16.80
2014,05,01,02,42,16.80
2014,05,01,02,43,16.90
2014,05,01,02,44,16.90
2014,05,01,02,45,16.90
2014,05,01,02,46,16.90
2014,05,01,02,47,16.90
2014,05,01,02,48,16.90
2014,05,01,02,49,16.90
2014,05,01,02,50,16.90
2014,05,01,02,51,16.90
2014,05,01,02,52,16.80
2014,05,01,02,53,16.80
2014,05,01,02,54,16.70
2014,05,01,02,55,16.60
2014,05,01,02,56,16.60
2014,05,01,02,57,16.60
2014,05,01,02,58,16.50
2014,05,01,02,59,16.40
2014,05,01,03,00,16.40
2014,05,01,03,01,16.30
2014,05,01,03,02,16.20
2014,05,01,03,03,16.20
2014,05,01,03,04,16.10
2014,05,01,03,05,16.10
2014,05,01,03,06,16.10
2014,05,01,03,07,16.10
2014,05,01,03,08,16.10
2014,05,01,03,09,16.10
2014,05,01,03,10,16.10
2014,05,01,03,11,16.10
2014,05,01,03,12,16.20
2014,05,01,03,13,16.20
2014,05,01,03,14,16.30
2014,05,01,03,15,16.40
2014,05,01,03,16,16.60
2014,05,01,03,17,16.80
2014,05,01,03,18,16.90
2014,05,01,03,19,17.10
2014,05,01,03,20,17.20
2014,05,01,03,21,17.30
2014,05,01,03,22,17.30
2014,05,01,03,23,17.30
2014,05,01,03,24,17.40
2014,05,01,03,25,17.30
2014,05,01,03,26,17.30
2014,05,01,03,27,17.30
2014,05,01,03,28,17.30
2014,05,01,03,29,17.30
2014,05,01,03,30,17.30
2014,05,01,03,31,17.30
2014,05,01,03,32,17.30
2014,05,01,03,33,17.30
2014,05,01,03,34,17.20
2014,05,01,03,35,17.20
2014,05,01,03,36,17.10
2014,05,01,03,37,17.10
2014,05,01,03,38,17.00
2014,05,01,03,39,16.90
2014,05,01,03,40,16.90
2014,05,01,03,41,16.80
2014,05,01,03,42,16.80
2014,05,01,03,43,16.70
2014,05,01,03,44,16.70
2014,05,01,03,45,16.60
2014,05,01,03,46,16.60
2014,05,01,03,47,16.60
2014,05,01,03,48,16.60
2014,05,01,03,49,16.60
2014,05,01,03,50,16.60
2014,05,01,03,51,16.60
2014,05,01,03,52,16.60
2014,05,01,03,53,16.60
2014,05,01,03,54,16.60
2014,05,01,03,55,16.70
2014,05,01,03,56,16.80
2014,05,01,03,57,16.90
2014,05,01,03,58,17.00
2014,05,01,03,59,17.10
2014,05,01,04,00,17.20
2014,05,01,04,01,17.30
2014,05,01,04,02,17.30
2014,05,01,04,03,17.30
2014,05,01,04,04,17.30
2014,05,01,04,05,17.30
2014,05,01,04,06,17.40
2014,05,01,04,07,17.40
2014,05,01,04,08,17.40
2014,05,01,04,09,17.50
2014,05,01,04,10,17.50
2014,05,01,04,11,17.50
2014,05,01,04,12,17.50
2014,05,01,04,13,17.50
2014,05,01,04,14,17.50
2014,05,01,04,15,17.40
2014,05,01,04,16,17.40
2014,05,01,04,17,17.40
2014,05,01,04,18,17.40
2014,05,01,04,19,17.40
2014,05,01,04,20,17.30
2014,05,01,04,21,17.30
2014,05,01,04,22,17.20
2014,05,01,04,23,17.20
2014,05,01,04,24,17.10
2014,05,01,04,25,17.00
2014,05,01,04,26,16.90
2014,05,01,04,27,16.80
2014,05,01,04,28,16.70
2014,05,01,04,29,16.50
2014,05,01,04,30,16.40
2014,05,01,04,31,16.20
2014,05,01,04,32,16.10
2014,05,01,04,33,15.90
2014,05,01,04,34,15.80
2014,05,01,04,35,15.70
2014,05,01,04,36,15.70
2014,05,01,04,37,15.60
2014,05,01,04,38,15.50
2014,05,01,04,39,15.50
2014,05,01,04,40,15.50
2014,05,01,04,41,15.50
2014,05,01,04,42,15.50
2014,05,01,04,43,15.50
2014,05,01,04,44,15.40
2014,05,01,04,45,15.40
2014,05,01,04,46,15.40
2014,05,01,04,47,15.50
2014,05,01,04,48,15.60
2014,05,01,04,49,15.70
2014,05,01,04,50,15.80
2014,05,01,04,51,15.80
2014,05,01,04,52,15.90
2014,05,01,04,53,16.00
2014,05,01,04,54,16.10
2014,05,01,04,55,16.10
2014,05,01,04,56,16.20
2014,05,01,04,57,16.30
2014,05,01,04,58,16.30
2014,05,01,04,59,16.40
2014,05,01,05,00,16.50
2014,05,01,05,01,16.60
2014,05,01,05,02,16.60
2014,05,01,05,03,16.70
2014,05,01,05,04,16.70
2014,05,01,05,05,16.70
2014,05,01,05,06,16.70
2014,05,01,05,07,16.70
2014,05,01,05,08,16.70
2014,05,01,05,09,16.70
2014,05,01,05,10,16.70
2014,05,01,05,11,16.60
2014,05,01,05,12,16.60
2014,05,01,05,13,16.60
2014,05,01,05,14,16.60
2014,05,01,05,15,16.60
2014,05,01,05,16,16.50
2014,05,01,05,17,16.50
2014,05,01,05,18,16.40
2014,05,01,05,19,16.40
2014,05,01,05,20,16.40
2014,05,01,05,21,16.30
2014,05,01,05,22,16.30
2014,05,01,05,23,16.20
2014,05,01,05,24,16.10
2014,05,01,05,25,16.00
2014,05,01,05,26,15.90
2014,05,01,05,27,15.80
2014,05,01,05,28,15.70
2014,05,01,05,29,15.70
2014,05,01,05,30,15.60
2014,05,01,05,31,15.50
2014,05,01,05,32,15.50
2014,05,01,05,33,15.50
2014,05,01,05,34,15.50
2014,05,01,05,35,15.40
2014,05,01,05,36,15.40
2014,05,01,05,37,15.40
2014,05,01,05,38,15.40
2014,05,01,05,39,15.40
2014,05,01,05,40,15.40
2014,05,01,05,41,15.40
2014,05,01,05,42,15.40
2014,05,01,05,43,15.40
2014,05,01,05,44,15.30
2014,05,01,05,45,15.30
2014,05,01,05,46,15.30
2014,05,01,05,47,15.30
2014,05,01,05,48,15.30
2014,05,01,05,49,15.20
2014,05,01,05,50,15.20
2014,05,01,05,51,15.20
2014,05,01,05,52,15.20
2014,05,01,05,53,15.10
2014,05,01,05,54,15.10
2014,05,01,05,55,15.10
2014,05,01,05,56,15.00
2014,05,01,05,57,15.00
2014,05,01,05,58,14.90
2014,05,01,05,59,14.80
2014,05,01,06,00,14.80
2014,05,01,06,01,14.70
2014,05,01,06,02,14.70
2014,05,01,06,03,14.70
2014,05,01,06,04,14.70
2014,05,01,06,05,14.70
2014,05,01,06,06,14.70
2014,05,01,06,07,14.60
2014,05,01,06,08,14.70
2014,05,01,06,09,14.70
2014,05,01,06,10,14.70
2014,05,01,06,11,14.70
2014,05,01,06,12,14.70
2014,05,01,06,13,14.70
2014,05,01,06,14,14.70
2014,05,01,06,15,14.70
2014,05,01,06,16,14.60
2014,05,01,06,17,14.60
2014,05,01,06,18,14.50
2014,05,01,06,19,14.40
2014,05,01,06,20,14.30
2014,05,01,06,21,14.30
2014,05,01,06,22,14.20
2014,05,01,06,23,14.10
2014,05,01,06,24,14.00
2014,05,01,06,25,14.00
2014,05,01,06,26,13.90
2014,05,01,06,27,13.80
2014,05,01,06,28,13.80
2014,05,01,06,29,13.70
2014,05,01,06,30,13.60
2014,05,01,06,31,13.60
2014,05,01,06,32,13.60
2014,05,01,06,33,13.60
2014,05,01,06,34,13.50
2014,05,01,06,35,13.50
2014,05,01,06,36,13.50
2014,05,01,06,37,13.50
2014,05,01,06,38,13.50
2014,05,01,06,39,13.50
2014,05,01,06,40,13.50
2014,05,01,06,41,13.50
2014,05,01,06,42,13.60
2014,05,01,06,43,13.60
2014,05,01,06,44,13.60
2014,05,01,06,45,13.60
2014,05,01,06,46,13.70
2014,05,01,06,47,13.70
2014,05,01,06,48,13.70
2014,05,01,06,49,13.80
2014,05,01,06,50,13.80
2014,05,01,06,51,13.90
2014,05,01,06,52,14.00
2014,05,01,06,53,14.10
2014,05,01,06,54,14.20
2014,05,01,06,55,14.30
2014,05,01,06,56,14.40
2014,05,01,06,57,14.50
2014,05,01,06,58,14.60
2014,05,01,06,59,14.70
2014,05,01,07,00,14.80
2014,05,01,07,01,14.90
2014,05,01,07,02,14.90
2014,05,01,07,03,15.00
2014,05,01,07,04,15.10
2014,05,01,07,05,15.20
2014,05,01,07,06,15.40
2014,05,01,07,07,15.50
2014,05,01,07,08,15.60
2014,05,01,07,09,15.70
2014,05,01,07,10,15.80
2014,05,01,07,11,15.80
2014,05,01,07,12,15.80
2014,05,01,07,13,15.80
2014,05,01,07,14,15.80
2014,05,01,07,15,15.80
2014,05,01,07,16,15.90
2014,05,01,07,17,16.00
2014,05,01,07,18,16.10
2014,05,01,07,19,16.20
2014,05,01,07,20,16.20
2014,05,01,07,21,16.30
2014,05,01,07,22,16.30
2014,05,01,07,23,16.40
2014,05,01,07,24,16.50
2014,05,01,07,25,16.70
2014,05,01,07,26,16.80
2014,05,01,07,27,17.00
2014,05,01,07,28,17.10
2014,05,01,07,29,17.20
2014,05,01,07,30,17.30
2014,05,01,07,31,17.30
2014,05,01,07,32,17.30
2014,05,01,07,33,17.30
2014,05,01,07,34,17.30
2014,05,01,07,35,17.30
2014,05,01,07,36,17.30
2014,05,01,07,37,17.30
2014,05,01,07,38,17.30
2014,05,01,07,39,17.40
2014,05,01,07,40,17.40
2014,05,01,07,41,17.40
2014,05,01,07,42,17.50
2014,05,01,07,43,17.50
2014,05,01,07,44,17.50
2014,05,01,07,45,17.60
2014,05,01,07,46,17.60
2014,05,01,07,47,17.70
2014,05,01,07,48,17.80
2014,05,01,07,49,17.80
2014,05,01,07,50,17.90
2014,05,01,07,51,17.90
2014,05,01,07,52,17.90
2014,05,01,07,53,17.90
2014,05,01,07,54,17.90
2014,05,01,07,55,17.90
2014,05,01,07,56,18.00
2014,05,01,07,57,18.00
2014,05,01,07,58,18.10
2014,05,01,07,59,18.10
2014,05,01,08,00,18.20
2014,05,01,08,01,18.20
2014,05,01,08,02,18.20
2014,05,01,08,03,18.20
2014,05,01,08,04,18.30
2014,05,01,08,05,18.30
2014,05,01,08,06,18.30
2014,05,01,08,07,18.40
2014,05,01,08,08,18.40
2014,05,01,08,09,18.40
2014,05,01,08,10,18.50
2014,05,01,08,11,18.50
2014,05,01,08,12,18.60
2014,05,01,08,13,18.60
2014,05,01,08,14,18.60
2014,05,01,08,15,18.70
2014,05,01,08,16,18.70
2014,05,01,08,17,18.70
2014,05,01,08,18,18.70
2014,05,01,08,19,18.70
2014,05,01,08,20,18.80
2014,05,01,08,21,18.80
2014,05,01,08,22,18.80
2014,05,01,08,23,18.90
2014,05,01,08,24,18.90
2014,05,01,08,25,18.90
2014,05,01,08,26,18.90
2014,05,01,08,27,19.00
2014,05,01,08,28,19.00
2014,05,01,08,29,19.00
2014,05,01,08,30,19.00
2014,05,01,08,31,19.10
2014,05,01,08,32,19.10
2014,05,01,08,33,19.10
2014,05,01,08,34,19.20
2014,05,01,08,35,19.20
2014,05,01,08,36,19.20
2014,05,01,08,37,19.20
2014,05,01,08,38,19.20
2014,05,01,08,39,19.30
2014,05,01,08,40,19.30
2014,05,01,08,41,19.30
2014,05,01,08,42,19.30
2014,05,01,08,43,19.30
2014,05,01,08,44,19.30
2014,05,01,08,45,19.30
2014,05,01,08,46,19.30
2014,05,01,08,47,19.30
2014,05,01,08,48,19.30
2014,05,01,08,49,19.30
2014,05,01,08,50,19.30
2014,05,01,08,51,19.30
2014,05,01,08,52,19.30
2014,05,01,08,53,19.30
2014,05,01,08,54,19.30
2014,05,01,08,55,19.30
2014,05,01,08,56,19.40
2014,05,01,08,57,19.50
2014,05,01,08,58,19.60
2014,05,01,08,59,19.60
2014,05,01,09,00,19.70
2014,05,01,09,01,19.80
2014,05,01,09,02,19.80
2014,05,01,09,03,19.90
2014,05,01,09,04,20.00
2014,05,01,09,05,20.10
2014,05,01,09,06,20.20
2014,05,01,09,07,20.20
2014,05,01,09,08,20.30
2014,05,01,09,09,20.30
2014,05,01,09,10,20.30
2014,05,01,09,11,20.40
2014,05,01,09,12,20.40
2014,05,01,09,13,20.50
2014,05,01,09,14,20.60
2014,05,01,09,15,20.60
2014,05,01,09,16,20.60
2014,05,01,09,17,20.70
2014,05,01,09,18,20.70
2014,05,01,09,19,20.80
2014,05,01,09,20,20.80
2014,05,01,09,21,20.80
2014,05,01,09,22,20.90
2014,05,01,09,23,21.00
2014,05,01,09,24,21.00
2014,05,01,09,25,21.10
2014,05,01,09,26,21.10
2014,05,01,09,27,21.20
2014,05,01,09,28,21.20
2014,05,01,09,29,21.30
2014,05,01,09,30,21.40
2014,05,01,09,31,21.50
2014,05,01,09,32,21.60
2014,05,01,09,33,21.60
2014,05,01,09,34,21.70
2014,05,01,09,35,21.80
2014,05,01,09,36,21.80
2014,05,01,09,37,21.90
2014,05,01,09,38,22.00
2014,05,01,09,39,22.10
2014,05,01,09,40,22.20
2014,05,01,09,41,22.20
2014,05,01,09,42,22.20
2014,05,01,09,43,22.20
2014,05,01,09,44,22.20
2014,05,01,09,45,22.20
2014,05,01,09,46,22.20
2014,05,01,09,47,22.20
2014,05,01,09,48,22.20
2014,05,01,09,49,22.30
2014,05,01,09,50,22.30
2014,05,01,09,51,22.20
2014,05,01,09,52,22.20
2014,05,01,09,53,22.10
2014,05,01,09,54,22.10
2014,05,01,09,55,22.10
2014,05,01,09,56,22.10
2014,05,01,09,57,22.10
2014,05,01,09,58,22.10
2014,05,01,09,59,22.10
2014,05,01,10,00,22.10
2014,05,01,10,01,22.10
2014,05,01,10,02,22.10
2014,05,01,10,03,22.10
2014,05,01,10,04,22.10
2014,05,01,10,05,22.10
2014,05,01,10,06,22.10
2014,05,01,10,07,22.10
2014,05,01,10,08,22.20
2014,05,01,10,09,22.20
2014,05,01,10,10,22.20
2014,05,01,10,11,22.20
2014,05,01,10,12,22.20
2014,05,01,10,13,22.20
2014,05,01,10,14,22.30
2014,05,01,10,15,22.30
2014,05,01,10,16,22.40
2014,05,01,10,17,22.50
2014,05,01,10,18,22.60
2014,05,01,10,19,22.60
2014,05,01,10,20,22.70
2014,05,01,10,21,22.80
2014,05,01,10,22,22.80
2014,05,01,10,23,22.90
2014,05,01,10,24,23.00
2014,05,01,10,25,23.00
2014,05,01,10,26,23.10
2014,05,01,10,27,23.20
2014,05,01,10,28,23.20
2014,05,01,10,29,23.30
2014,05,01,10,30,23.30
2014,05,01,10,31,23.30
2014,05,01,10,32,23.30
2014,05,01,10,33,23.30
2014,05,01,10,34,23.30
2014,05,01,10,35,23.30
2014,05,01,10,36,23.30
2014,05,01,10,37,23.30
2014,05,01,10,38,23.30
2014,05,01,10,39,23.30
2014,05,01,10,40,23.30
2014,05,01,10,41,23.30
2014,05,01,10,42,23.30
2014,05,01,10,43,23.30
2014,05,01,10,44,23.30
2014,05,01,10,45,23.30
2014,05,01,10,46,23.30
2014,05,01,10,47,23.30
2014,05,01,10,48,23.30
2014,05,01,10,49,23.30
2014,05,01,10,50,23.30
2014,05,01,10,51,23.30
2014,05,01,10,52,23.40
2014,05,01,10,53,23.50
2014,05,01,10,54,23.50
2014,05,01,10,55,23.60
2014,05,01,10,56,23.60
2014,05,01,10,57,23.60
2014,05,01,10,58,23.70
2014,05,01,10,59,23.70
2014,05,01,11,00,23.70
2014,05,01,11,01,23.70
2014,05,01,11,02,23.80
2014,05,01,11,03,23.80
2014,05,01,11,04,23.80
2014,05,01,11,05,23.80
2014,05,01,11,06,23.80
2014,05,01,11,07,23.80
2014,05,01,11,08,23.90
2014,05,01,11,09,23.90
2014,05,01,11,10,23.90
2014,05,01,11,11,24.00
2014,05,01,11,12,24.00
2014,05,01,11,13,23.90
2014,05,01,11,14,23.80
2014,05,01,11,15,23.70
2014,05,01,11,16,23.50
2014,05,01,11,17,23.40
2014,05,01,11,18,23.30
2014,05,01,11,19,23.20
2014,05,01,11,20,23.10
2014,05,01,11,21,22.90
2014,05,01,11,22,22.70
2014,05,01,11,23,22.60
2014,05,01,11,24,22.40
2014,05,01,11,25,22.40
2014,05,01,11,26,22.30
2014,05,01,11,27,22.30
2014,05,01,11,28,22.30
2014,05,01,11,29,22.20
2014,05,01,11,30,22.10
2014,05,01,11,31,22.00
2014,05,01,11,32,21.90
2014,05,01,11,33,21.90
2014,05,01,11,34,21.80
2014,05,01,11,35,21.70
2014,05,01,11,36,21.70
2014,05,01,11,37,21.60
2014,05,01,11,38,21.60
2014,05,01,11,39,21.50
2014,05,01,11,40,21.40
2014,05,01,11,41,21.40
2014,05,01,11,42,21.30
2014,05,01,11,43,21.30
2014,05,01,11,44,21.30
2014,05,01,11,45,21.30
2014,05,01,11,46,21.30
2014,05,01,11,47,21.30
2014,05,01,11,48,21.40
2014,05,01,11,49,21.40
2014,05,01,11,50,21.60
2014,05,01,11,51,21.70
2014,05,01,11,52,21.80
2014,05,01,11,53,22.00
2014,05,01,11,54,22.10
2014,05,01,11,55,22.20
2014,05,01,11,56,22.30
2014,05,01,11,57,22.40
2014,05,01,11,58,22.50
2014,05,01,11,59,22.50
2014,05,01,12,00,22.60
2014,05,01,12,01,22.60
2014,05,01,12,02,22.70
2014,05,01,12,03,22.80
2014,05,01,12,04,22.90
2014,05,01,12,05,23.00
2014,05,01,12,06,23.20
2014,05,01,12,07,23.30
2014,05,01,12,08,23.40
2014,05,01,12,09,23.60
2014,05,01,12,10,23.70
2014,05,01,12,11,23.80
2014,05,01,12,12,23.90
2014,05,01,12,13,24.00
2014,05,01,12,14,24.00
2014,05,01,12,15,24.10
2014,05,01,12,16,24.10
2014,05,01,12,17,24.10
2014,05,01,12,18,24.10
2014,05,01,12,19,24.20
2014,05,01,12,20,24.20
2014,05,01,12,21,24.10
2014,05,01,12,22,24.10
2014,05,01,12,23,24.00
2014,05,01,12,24,24.00
2014,05,01,12,25,23.90
2014,05,01,12,26,23.90
2014,05,01,12,27,23.80
2014,05,01,12,28,23.80
2014,05,01,12,29,23.70
2014,05,01,12,30,23.70
2014,05,01,12,31,23.70
2014,05,01,12,32,23.70
2014,05,01,12,33,23.70
2014,05,01,12,34,23.70
2014,05,01,12,35,23.80
2014,05,01,12,36,23.80
2014,05,01,12,37,23.80
2014,05,01,12,38,23.80
2014,05,01,12,39,23.80
2014,05,01,12,40,23.80
2014,05,01,12,41,23.80
2014,05,01,12,42,23.90
2014,05,01,12,43,24.00
2014,05,01,12,44,24.10
2014,05,01,12,45,24.20
2014,05,01,12,46,24.20
2014,05,01,12,47,24.30
2014,05,01,12,48,24.40
2014,05,01,12,49,24.40
2014,05,01,12,50,24.60
2014,05,01,12,51,24.70
2014,05,01,12,52,24.80
2014,05,01,12,53,24.80
2014,05,01,12,54,24.80
2014,05,01,12,55,24.80
2014,05,01,12,56,24.80
2014,05,01,12,57,24.80
2014,05,01,12,58,24.80
2014,05,01,12,59,24.80
2014,05,01,13,00,24.90
2014,05,01,13,01,25.00
2014,05,01,13,02,25.10
2014,05,01,13,03,25.20
2014,05,01,13,04,25.20
2014,05,01,13,05,25.20
2014,05,01,13,06,25.10
2014,05,01,13,07,25.00
2014,05,01,13,08,24.90
2014,05,01,13,09,25.00
2014,05,01,13,10,25.10
2014,05,01,13,11,25.20
2014,05,01,13,12,25.30
2014,05,01,13,13,25.40
2014,05,01,13,14,25.50
2014,05,01,13,15,25.50
2014,05,01,13,16,25.70
2014,05,01,13,17,25.90
2014,05,01,13,18,26.10
2014,05,01,13,19,26.30
2014,05,01,13,20,26.50
2014,05,01,13,21,26.80
2014,05,01,13,22,27.00
2014,05,01,13,23,27.10
2014,05,01,13,24,27.30
2014,05,01,13,25,27.40
2014,05,01,13,26,27.50
2014,05,01,13,27,27.50
2014,05,01,13,28,27.60
2014,05,01,13,29,27.70
2014,05,01,13,30,27.70
2014,05,01,13,31,27.80
2014,05,01,13,32,27.80
2014,05,01,13,33,27.90
2014,05,01,13,34,28.00
2014,05,01,13,35,28.10
2014,05,01,13,36,28.20
2014,05,01,13,37,28.20
2014,05,01,13,38,28.20
2014,05,01,13,39,28.30
2014,05,01,13,40,28.30
2014,05,01,13,41,28.30
2014,05,01,13,42,28.30
2014,05,01,13,43,28.30
2014,05,01,13,44,28.20
2014,05,01,13,45,28.20
2014,05,01,13,46,28.10
2014,05,01,13,47,28.10
2014,05,01,13,48,28.10
2014,05,01,13,49,28.00
2014,05,01,13,50,28.00
2014,05,01,13,51,27.90
2014,05,01,13,52,27.80
2014,05,01,13,53,27.80
2014,05,01,13,54,27.70
2014,05,01,13,55,27.70
2014,05,01,13,56,27.70
2014,05,01,13,57,27.70
2014,05,01,13,58,27.80
2014,05,01,13,59,27.80
2014,05,01,14,00,27.70
2014,05,01,14,01,27.70
2014,05,01,14,02,27.70
2014,05,01,14,03,27.60
2014,05,01,14,04,27.60
2014,05,01,14,05,27.60
2014,05,01,14,06,27.60
2014,05,01,14,07,27.60
2014,05,01,14,08,27.60
2014,05,01,14,09,27.60
2014,05,01,14,10,27.60
2014,05,01,14,11,27.60
2014,05,01,14,12,27.60
2014,05,01,14,13,27.50
2014,05,01,14,14,27.50
2014,05,01,14,15,27.60
2014,05,01,14,16,27.60
2014,05,01,14,17,27.60
2014,05,01,14,18,27.50
2014,05,01,14,19,27.50
2014,05,01,14,20,27.50
2014,05,01,14,21,27.50
2014,05,01,14,22,27.50
2014,05,01,14,23,27.40
2014,05,01,14,24,27.40
2014,05,01,14,25,27.30
2014,05,01,14,26,27.40
2014,05,01,14,27,27.40
2014,05,01,14,28,27.40
2014,05,01,14,29,27.40
2014,05,01,14,30,27.50
2014,05,01,14,31,27.50
2014,05,01,14,32,27.30
2014,05,01,14,33,27.30
2014,05,01,14,34,27.20
2014,05,01,14,35,27.20
2014,05,01,14,36,27.30
2014,05,01,14,37,27.20
2014,05,01,14,38,27.10
2014,05,01,14,39,27.10
2014,05,01,14,40,26.90
2014,05,01,14,41,26.90
2014,05,01,14,42,26.80
2014,05,01,14,43,26.80
2014,05,01,14,44,26.80
2014,05,01,14,45,26.90
2014,05,01,14,46,27.00
2014,05,01,14,47,27.00
2014,05,01,14,48,27.10
2014,05,01,14,49,27.00
2014,05,01,14,50,27.10
2014,05,01,14,51,27.00
2014,05,01,14,52,26.90
2014,05,01,14,53,27.00
2014,05,01,14,54,27.00
2014,05,01,14,55,27.00
2014,05,01,14,56,27.00
2014,05,01,14,57,27.00
2014,05,01,14,58,27.00
2014,05,01,14,59,27.00
2014,05,01,15,00,27.00
2014,05,01,15,01,26.90
2014,05,01,15,02,26.90
2014,05,01,15,03,26.80
2014,05,01,15,04,26.80
2014,05,01,15,05,26.80
2014,05,01,15,06,26.80
2014,05,01,15,07,26.80
2014,05,01,15,08,26.80
2014,05,01,15,09,26.80
2014,05,01,15,10,26.90
2014,05,01,15,11,26.90
2014,05,01,15,12,26.90
2014,05,01,15,13,26.90
2014,05,01,15,14,26.90
2014,05,01,15,15,26.90
2014,05,01,15,16,26.90
2014,05,01,15,17,26.80
2014,05,01,15,18,26.80
2014,05,01,15,19,26.70
2014,05,01,15,20,26.70
2014,05,01,15,21,26.70
2014,05,01,15,22,26.70
2014,05,01,15,23,26.60
2014,05,01,15,24,26.60
2014,05,01,15,25,26.50
2014,05,01,15,26,26.40
2014,05,01,15,27,26.40
2014,05,01,15,28,26.40
2014,05,01,15,29,26.40
2014,05,01,15,30,26.50
2014,05,01,15,31,26.50
2014,05,01,15,32,26.60
2014,05,01,15,33,26.70
2014,05,01,15,34,26.80
2014,05,01,15,35,27.00
2014,05,01,15,36,27.00
2014,05,01,15,37,27.10
2014,05,01,15,38,27.10
2014,05,01,15,39,27.10
2014,05,01,15,40,27.10
2014,05,01,15,41,27.10
2014,05,01,15,42,27.10
2014,05,01,15,43,27.10
2014,05,01,15,44,27.10
2014,05,01,15,45,27.10
2014,05,01,15,46,27.10
2014,05,01,15,47,27.20
2014,05,01,15,48,27.20
2014,05,01,15,49,27.20
2014,05,01,15,50,27.10
2014,05,01,15,51,27.10
2014,05,01,15,52,27.00
2014,05,01,15,53,27.00
2014,05,01,15,54,27.10
2014,05,01,15,55,27.10
2014,05,01,15,56,27.10
2014,05,01,15,57,27.10
2014,05,01,15,58,27.00
2014,05,01,15,59,26.90
2014,05,01,16,00,26.90
2014,05,01,16,01,26.80
2014,05,01,16,02,26.80
2014,05,01,16,03,26.80
2014,05,01,16,04,26.70
2014,05,01,16,05,26.70
2014,05,01,16,06,26.70
2014,05,01,16,07,26.70
2014,05,01,16,08,26.70
2014,05,01,16,09,26.70
2014,05,01,16,10,26.70
2014,05,01,16,11,26.60
2014,05,01,16,12,26.60
2014,05,01,16,13,26.50
2014,05,01,16,14,26.40
2014,05,01,16,15,26.40
2014,05,01,16,16,26.40
2014,05,01,16,17,26.50
2014,05,01,16,18,26.60
2014,05,01,16,19,26.70
2014,05,01,16,20,26.80
2014,05,01,16,21,26.80
2014,05,01,16,22,26.80
2014,05,01,16,23,26.70
2014,05,01,16,24,26.60
2014,05,01,16,25,26.50
2014,05,01,16,26,26.40
2014,05,01,16,27,26.30
2014,05,01,16,28,26.30
2014,05,01,16,29,26.20
2014,05,01,16,30,26.20
2014,05,01,16,31,26.20
2014,05,01,16,32,26.20
2014,05,01,16,33,26.10
2014,05,01,16,34,26.10
2014,05,01,16,35,26.10
2014,05,01,16,36,26.00
2014,05,01,16,37,26.10
2014,05,01,16,38,26.10
2014,05,01,16,39,26.00
2014,05,01,16,40,25.90
2014,05,01,16,41,25.90
2014,05,01,16,42,25.90
2014,05,01,16,43,25.90
2014,05,01,16,44,26.00
2014,05,01,16,45,25.90
2014,05,01,16,46,25.80
2014,05,01,16,47,25.80
2014,05,01,16,48,25.80
2014,05,01,16,49,25.80
2014,05,01,16,50,25.80
2014,05,01,16,51,25.80
2014,05,01,16,52,25.80
2014,05,01,16,53,25.80
2014,05,01,16,54,25.80
2014,05,01,16,55,25.70
2014,05,01,16,56,25.60
2014,05,01,16,57,25.60
2014,05,01,16,58,25.50
2014,05,01,16,59,25.50
2014,05,01,17,00,25.40
2014,05,01,17,01,25.40
2014,05,01,17,02,25.40
2014,05,01,17,03,25.40
2014,05,01,17,04,25.40
2014,05,01,17,05,25.50
2014,05,01,17,06,25.50
2014,05,01,17,07,25.60
2014,05,01,17,08,25.70
2014,05,01,17,09,25.80
2014,05,01,17,10,25.90
2014,05,01,17,11,26.00
2014,05,01,17,12,26.00
2014,05,01,17,13,26.10
2014,05,01,17,14,26.10
2014,05,01,17,15,26.10
2014,05,01,17,16,26.00
2014,05,01,17,17,26.00
2014,05,01,17,18,26.00
2014,05,01,17,19,26.00